Date String (YYYY-MM-DD hh:mm:ss) UTC,Instrument flags,Ambient pressure (hPa),Sample flow (lpm),Bypass flow (lpm),Sample temperature (°C),Ambient temperature (°C),ASC tube jacket temperature (°C),LED temperature (°C),Box temperature (°C),Sample RH (%),Span deviation,Mass concentration (μg/m³),Mass concentration (μg/m³),Mass concentration (μg/m³)
DateTimeUTC,F1_M11,P_M11,Q1_M11,Q2_M11,T1_M11,T2_M11,T3_M11,T4_M11,T5_M11,U1_M11,ZSPAN_M11,X2_M11,X0_M11,X1_M11
2022-08-06 08:00:00,,0827.7,5.00,0.00,29.5,28.5,00.0,38.3,31.5,32.4,0000.0,0005.27,0014.82,0003.97
2022-08-06 08:01:00,,0827.7,5.01,0.00,29.6,28.5,00.0,38.3,31.6,32.3,0000.0,0005.29,0015.03,0003.97
2022-08-06 08:02:00,,0827.7,5.00,0.00,29.6,28.6,00.0,38.3,31.6,32.2,0000.0,0005.25,0015.33,0003.95
2022-08-06 08:03:00,,0827.7,4.99,0.00,29.6,28.4,00.0,38.3,31.6,32.2,0000.0,0005.23,0015.22,0003.94
2022-08-06 08:04:00,,0827.7,5.01,0.00,29.6,27.8,00.0,38.3,31.4,32.2,0000.0,0005.16,0015.62,0003.91
2022-08-06 08:05:00,,0827.7,5.01,0.00,29.6,27.5,00.0,38.3,31.4,32.2,0000.0,0005.10,0015.07,0003.89
2022-08-06 08:06:00,,0827.7,4.99,0.00,29.5,27.5,00.0,38.3,31.3,32.3,0000.0,0005.00,0014.55,0003.87
2022-08-06 08:07:00,,0827.7,5.00,0.00,29.4,27.5,00.0,38.2,31.2,32.3,0000.0,0004.95,0014.09,0003.85
2022-08-06 08:08:00,,0827.7,4.99,0.00,29.4,27.6,00.0,38.2,31.2,32.4,0000.0,0004.93,0014.24,0003.84
2022-08-06 08:09:00,,0827.7,5.01,0.00,29.4,27.8,00.0,38.2,31.3,32.4,0000.0,0004.89,0014.13,0003.83
2022-08-06 08:10:00,,0827.7,4.99,0.00,29.4,27.9,00.0,38.3,31.3,32.3,0000.0,0004.85,0013.91,0003.82
2022-08-06 08:11:00,,0827.7,5.00,0.00,29.5,28.0,00.0,38.3,31.4,32.2,0000.0,0004.86,0012.51,0003.81
2022-08-06 08:12:00,,0827.7,5.01,0.00,29.5,28.2,00.0,38.3,31.4,32.2,0000.0,0004.82,0012.26,0003.80
2022-08-06 08:13:00,,0827.7,5.00,0.00,29.5,28.3,00.0,38.3,31.5,32.2,0000.0,0004.78,0011.30,0003.78
2022-08-06 08:14:00,,0827.7,5.00,0.00,29.5,28.4,00.0,38.3,31.5,32.1,0000.0,0004.73,0010.72,0003.76
2022-08-06 08:15:00,,0827.7,5.00,0.00,29.5,28.5,00.0,38.3,31.5,32.0,0000.0,0004.70,0009.99,0003.74
2022-08-06 08:16:00,,0827.7,5.00,0.00,29.6,28.5,00.0,38.3,31.6,31.9,0000.0,0004.71,0010.03,0003.73
2022-08-06 08:17:00,,0827.7,5.00,0.00,29.6,28.6,00.0,38.4,31.6,31.9,0000.0,0004.67,0010.18,0003.73
2022-08-06 08:18:00,,0827.8,5.00,0.00,29.6,28.6,00.0,38.4,31.6,31.9,0000.0,0004.66,0010.20,0003.71
2022-08-06 08:19:00,,0827.8,5.00,0.00,29.6,28.1,00.0,38.3,31.5,31.8,0000.0,0004.62,0010.00,0003.71
2022-08-06 08:20:00,,0827.8,5.01,0.00,29.6,27.6,00.0,38.3,31.4,31.8,0000.0,0004.66,0010.73,0003.70
2022-08-06 08:21:00,,0827.8,5.00,0.00,29.5,27.5,00.0,38.3,31.3,31.9,0000.0,0004.69,0011.75,0003.70
2022-08-06 08:22:00,,0827.8,5.00,0.00,29.5,27.5,00.0,38.3,31.3,32.0,0000.0,0004.67,0011.75,0003.70
2022-08-06 08:23:00,,0827.8,5.00,0.00,29.4,27.6,00.0,38.3,31.3,32.1,0000.0,0004.67,0011.65,0003.71
2022-08-06 08:24:00,,0827.8,4.99,0.00,29.4,27.7,00.0,38.3,31.3,32.1,0000.0,0004.66,0011.57,0003.72
2022-08-06 08:25:00,,0827.8,5.00,0.00,29.4,27.9,00.0,38.3,31.3,32.0,0000.0,0004.67,0011.64,0003.73
2022-08-06 08:26:00,,0827.8,4.99,0.00,29.5,28.0,00.0,38.3,31.4,32.0,0000.0,0004.70,0011.81,0003.75
2022-08-06 08:27:00,,0827.8,5.00,0.00,29.5,28.1,00.0,38.3,31.4,32.0,0000.0,0004.73,0012.39,0003.76
2022-08-06 08:28:00,,0827.8,5.01,0.00,29.5,28.2,00.0,38.3,31.5,31.8,0000.0,0004.68,0012.45,0003.76
2022-08-06 08:29:00,,0827.9,5.00,0.00,29.5,28.3,00.0,38.3,31.5,31.8,0000.0,0004.69,0013.42,0003.77
2022-08-06 08:30:00,,0827.8,5.00,0.00,29.5,28.4,00.0,38.3,31.5,31.8,0000.0,0004.71,0013.52,0003.79
2022-08-06 08:31:00,,0827.9,5.00,0.00,29.6,28.5,00.0,38.3,31.6,31.7,0000.0,0004.67,0013.50,0003.79
2022-08-06 08:32:00,,0827.9,5.01,0.00,29.6,28.6,00.0,38.4,31.6,31.5,0000.0,0004.64,0013.18,0003.80
2022-08-06 08:33:00,,0827.9,5.00,0.00,29.6,28.7,00.0,38.4,31.6,31.3,0000.0,0004.61,0012.92,0003.81
2022-08-06 08:34:00,,0827.9,4.99,0.00,29.7,28.4,00.0,38.4,31.6,31.1,0000.0,0004.61,0013.01,0003.82
2022-08-06 08:35:00,,0827.9,5.00,0.00,29.6,27.6,00.0,38.3,31.4,31.1,0000.0,0004.65,0013.23,0003.85
2022-08-06 08:36:00,,0828.0,4.99,0.00,29.6,27.1,00.0,38.3,31.3,31.2,0000.0,0004.66,0013.43,0003.87
2022-08-06 08:37:00,,0827.9,5.01,0.00,29.5,27.0,00.0,38.3,31.2,31.4,0000.0,0004.63,0013.19,0003.88
2022-08-06 08:38:00,,0828.0,5.00,0.00,29.4,27.0,00.0,38.2,31.1,31.8,0000.0,0004.58,0012.56,0003.87
2022-08-06 08:39:00,,0828.0,4.99,0.00,29.3,27.2,00.0,38.2,31.1,31.9,0000.0,0004.65,0011.89,0003.87
2022-08-06 08:40:00,,0827.9,5.01,0.00,29.3,27.3,00.0,38.2,31.1,32.0,0000.0,0004.67,0010.92,0003.88
2022-08-06 08:41:00,,0827.9,5.00,0.00,29.3,27.5,00.0,38.2,31.2,32.0,0000.0,0004.64,0011.39,0003.87
2022-08-06 08:42:00,,0828.0,5.00,0.00,29.3,27.7,00.0,38.2,31.2,32.0,0000.0,0004.64,0011.05,0003.87
2022-08-06 08:43:00,,0828.0,5.01,0.00,29.3,27.8,00.0,38.2,31.2,32.0,0000.0,0004.65,0010.30,0003.86
2022-08-06 08:44:00,,0828.0,5.00,0.00,29.4,28.0,00.0,38.2,31.3,31.9,0000.0,0004.68,0010.21,0003.84
2022-08-06 08:45:00,,0828.0,5.00,0.00,29.4,28.1,00.0,38.2,31.3,31.9,0000.0,0004.66,0010.25,0003.83
2022-08-06 08:46:00,,0828.0,5.00,0.00,29.4,28.2,00.0,38.2,31.3,31.8,0000.0,0004.64,0010.25,0003.80
2022-08-06 08:47:00,,0828.0,5.01,0.00,29.4,28.3,00.0,38.2,31.4,31.7,0000.0,0004.66,0010.38,0003.79
2022-08-06 08:48:00,,0828.1,5.00,0.00,29.5,28.4,00.0,38.2,31.4,31.4,0000.0,0004.65,0010.52,0003.79
2022-08-06 08:49:00,,0828.1,5.00,0.00,29.5,28.5,00.0,38.2,31.5,31.4,0000.0,0004.68,0010.73,0003.80
2022-08-06 08:50:00,,0828.1,5.01,0.00,29.5,28.5,00.0,38.3,31.5,31.4,0000.0,0004.65,0011.51,0003.81
2022-08-06 08:51:00,,0828.1,5.00,0.00,29.5,28.6,00.0,38.3,31.5,31.4,0000.0,0004.61,0011.61,0003.80
2022-08-06 08:52:00,,0828.1,4.99,0.00,29.6,28.7,00.0,38.3,31.6,31.3,0000.0,0004.67,0011.24,0003.81
2022-08-06 08:53:00,,0828.1,5.01,0.00,29.6,28.7,00.0,38.3,31.6,31.1,0000.0,0004.67,0011.83,0003.80
2022-08-06 08:54:00,,0828.1,5.00,0.00,29.6,28.6,00.0,38.3,31.6,31.1,0000.0,0004.64,0011.78,0003.80
2022-08-06 08:55:00,,0828.1,5.01,0.00,29.6,28.0,00.0,38.3,31.5,31.1,0000.0,0004.62,0011.89,0003.79
2022-08-06 08:56:00,,0828.1,4.99,0.00,29.6,27.6,00.0,38.3,31.4,31.2,0000.0,0004.61,0011.84,0003.78
2022-08-06 08:57:00,,0828.0,5.00,0.00,29.5,27.5,00.0,38.3,31.3,31.3,0000.0,0004.56,0011.66,0003.76
2022-08-06 08:58:00,,0828.1,5.00,0.00,29.5,27.6,00.0,38.3,31.3,31.4,0000.0,0004.51,0011.26,0003.72
2022-08-06 08:59:00,,0828.0,4.99,0.00,29.5,27.7,00.0,38.3,31.3,31.4,0000.0,0004.50,0011.03,0003.69
